Wind_Speed
20 21 19 18 19 20 21 23 22 18 17 15 11 8 6 4 2 1 4 4 3 3 2 3 3 1 2 2 3 3 2 2 4 8 8 5 3 4 3 1 2 2 1 1 2 3 2 2 2 2 1 1 0 7 12 8 1 2 1 2 1 2 3 2 2 4 4 6 6 4 2 4 5 2 2 4 3 3 5 5 4 4 3 2 3 0 3
19 21 19 17 18 19 20 22 20 18 17 17 15 9 5 4 2 1 3 3 2 1 0 1 2 4 4 4 3 2 2 4 5 4 5 4 2 2 2 2 2 2 2 3 2 1 2 2 2 1 2 1 4 9 13 10 4 3 2 3 2 2 2 3 2 3 4 4 5 5 5 3 2 1 2 1 4 7 5 3 4 3 4 4 4 2 3
18 20 18 16 17 18 19 20 19 17 15 16 16 10 5 3 1 2 3 1 3 1 1 2 2 3 3 3 3 3 3 5 6 4 4 6 3 2 2 2 2 3 3 4 4 3 4 2 2 2 1 1 4 10 15 12 7 4 4 3 2 2 2 2 3 3 3 3 2 1 3 3 1 0 1 0 5 8 6 3 4 2 4 5 5 3 3
17 19 18 16 16 17 17 19 19 16 14 14 15 11 6 2 0 2 4 2 2 2 2 2 1 2 1 2 2 3 2 3 7 6 5 9 8 5 4 3 2 4 5 5 5 6 4 3 2 2 2 3 3 7 12 15 13 9 8 6 1 3 3 2 5 5 4 5 6 4 1 1 1 0 1 1 3 5 6 5 3 4 4 3 3 5 9
17 18 17 15 15 16 16 18 18 16 13 13 13 10 6 3 1 1 3 2 3 3 5 7 3 3 2 2 1 2 1 2 6 7 5 7 8 5 5 6 3 2 3 4 3 5 5 5 4 2 3 3 4 6 8 14 18 12 9 9 3 4 4 3 4 4 4 6 6 6 2 2 1 1 1 1 2 5 7 4 5 7 7 2 5 9 13
16 17 16 14 14 15 15 17 18 16 13 12 11 8 6 3 1 1 2 1 0 1 5 9 6 2 1 3 1 2 4 3 3 3 3 7 8 5 4 8 6 2 1 4 2 4 4 5 3 2 3 3 4 6 5 10 17 13 8 9 5 5 2 4 1 2 1 0 5 5 1 2 2 4 3 1 1 5 6 3 4 7 5 5 9 12 12
16 16 15 13 13 14 14 16 17 15 13 12 10 7 6 4 2 1 3 1 3 2 8 10 5 2 1 4 2 2 4 4 1 1 3 5 7 5 4 6 8 5 3 5 3 2 2 2 3 1 2 3 2 4 3 6 14 12 6 6 5 4 2 4 2 2 5 7 7 7 5 4 5 7 6 5 2 3 6 4 3 4 2 4 13 13 7
15 15 14 12 12 13 13 14 16 15 13 11 9 7 6 5 3 2 3 2 3 4 7 5 2 3 3 3 2 1 3 3 1 3 4 2 3 5 5 2 5 6 6 7 4 1 4 3 1 1 2 2 1 1 1 3 8 10 4 4 5 3 1 4 2 3 5 8 10 9 7 5 7 8 9 8 6 5 5 5 5 6 5 7 13 11 5
15 14 12 11 11 12 12 13 15 15 13 10 10 11 7 4 4 6 3 2 4 5 4 2 4 2 3 3 2 1 1 2 3 4 6 4 1 2 5 4 2 5 8 8 3 3 4 4 3 2 2 2 1 1 1 3 2 6 4 3 5 3 1 3 4 4 3 6 9 10 7 5 7 9 10 8 5 2 1 1 3 5 9 11 11 8 5
15 14 11 9 10 11 12 12 13 14 13 10 11 12 9 4 3 6 3 1 4 4 3 3 4 1 1 2 2 1 3 3 3 4 6 7 6 4 6 6 3 5 6 5 4 6 5 3 4 2 3 6 8 7 6 6 4 2 1 2 3 2 2 2 3 3 3 6 8 7 6 7 5 5 6 5 3 0 0 2 1 7 12 10 6 5 7
14 13 10 8 9 10 11 11 11 12 12 12 12 12 11 8 5 5 2 0 3 4 3 2 2 0 2 2 3 3 3 2 2 5 1 4 6 7 5 5 5 3 2 4 6 5 3 2 4 7 11 14 14 15 15 14 10 5 2 2 2 3 4 1 1 3 2 8 8 5 5 4 2 5 3 4 4 1 2 1 2 4 5 3 3 6 11
14 12 9 7 7 8 9 10 10 11 12 12 12 11 12 12 8 6 2 2 3 5 4 1 0 1 1 5 6 4 5 6 7 11 8 1 3 9 9 7 5 1 2 5 7 3 2 2 2 6 11 14 14 17 17 13 11 10 7 4 2 3 4 1 1 3 1 4 6 5 1 3 5 5 4 3 5 4 6 5 4 3 2 3 9 10 13
13 11 8 6 6 6 8 8 8 9 9 10 10 10 11 12 10 7 3 2 1 3 2 1 4 6 6 9 9 7 9 12 12 14 11 4 3 7 8 6 4 2 3 5 5 2 3 1 3 3 6 7 8 11 12 8 7 11 12 7 4 3 3 2 1 1 1 2 5 2 4 6 5 6 6 4 2 3 6 5 4 5 3 5 12 11 13
12 11 7 5 5 5 6 7 7 6 7 8 8 9 10 11 10 9 5 2 1 2 1 1 4 6 6 7 9 7 8 10 10 8 7 4 5 7 6 4 4 5 4 3 4 4 3 2 4 3 5 6 5 4 5 4 4 7 9 8 5 5 3 2 2 1 2 3 1 2 3 4 5 5 4 2 2 3 2 2 3 6 3 7 12 12 15
12 11 7 4 4 5 5 5 6 5 5 5 7 8 9 10 10 9 7 3 1 2 4 2 2 3 2 3 7 6 5 5 5 4 4 4 5 7 6 4 4 4 3 2 4 4 2 2 3 3 3 3 2 2 3 3 3 3 4 5 6 5 2 3 3 1 2 4 1 3 3 2 3 5 5 4 4 4 4 3 3 5 1 11 15 14 17
12 11 7 4 3 3 4 4 5 4 4 4 5 7 7 8 9 8 7 4 2 2 6 6 2 1 3 5 7 7 4 2 2 2 4 4 4 5 6 6 4 2 2 4 4 4 3 3 3 2 0 1 2 1 2 2 3 4 4 6 7 6 4 4 5 2 2 5 3 2 1 3 5 6 8 11 10 3 4 3 4 4 5 14 17 18 21
12 11 8 4 2 2 3 3 4 3 3 3 4 5 6 7 8 7 7 5 3 3 6 6 2 4 5 5 5 6 5 4 3 3 1 2 2 2 4 5 5 5 4 3 3 4 4 3 2 2 1 2 2 1 1 1 1 5 6 7 7 6 5 4 5 2 2 4 2 3 3 3 4 5 10 16 12 2 6 3 5 5 9 15 18 21 25
12 11 8 4 3 2 2 2 3 3 3 2 2 4 5 6 6 6 6 5 3 4 7 8 6 5 5 5 4 4 5 5 4 4 2 0 2 3 3 3 4 5 5 3 2 4 4 2 1 3 1 2 1 2 1 1 1 3 3 3 4 4 3 3 4 2 2 3 2 1 2 2 4 9 16 16 9 3 5 2 6 6 12 17 20 22 26
12 11 8 4 4 2 2 1 2 2 2 2 2 3 4 5 5 5 5 5 4 4 7 9 8 8 8 7 6 6 5 4 4 4 2 1 1 2 4 4 3 3 4 4 3 2 3 1 0 3 2 2 2 1 1 1 1 1 1 2 2 2 2 2 2 2 2 2 2 1 2 1 5 14 15 8 3 2 2 3 4 9 16 20 23 25 28
11 10 8 5 5 3 2 2 1 1 2 3 2 2 4 4 4 3 3 4 3 4 7 9 9 9 9 9 8 8 6 4 4 4 4 2 1 3 3 3 2 2 3 4 2 1 2 1 1 1 2 1 1 2 1 1 1 2 1 0 0 1 1 1 1 1 1 2 3 2 2 2 11 15 8 4 2 4 5 3 2 12 19 23 25 27 31
10 10 7 5 6 4 2 2 2 1 2 3 3 2 4 5 4 3 2 2 2 3 5 7 8 10 11 11 11 10 9 7 5 4 5 3 2 2 2 2 0 1 1 3 2 0 1 2 1 0 1 0 0 1 1 1 2 2 2 2 0 1 2 0 2 2 2 2 1 1 3 6 13 11 3 3 6 6 6 4 4 13 19 24 27 27 29
10 9 7 6 7 5 3 2 2 2 2 3 3 2 3 4 4 3 2 1 1 1 3 5 7 9 11 11 12 11 9 9 7 4 4 4 3 3 4 4 3 3 1 2 2 1 1 1 1 1 1 1 1 1 1 2 0 3 1 2 1 2 2 2 1 1 2 2 4 3 5 10 12 9 7 8 7 4 5 5 8 15 19 24 28 28 28
9 8 7 6 7 6 4 3 2 2 3 3 3 2 2 3 4 4 3 1 1 2 3 5 7 9 9 10 10 9 9 9 7 5 3 1 3 4 4 4 5 3 2 2 2 3 3 2 2 2 2 1 2 2 1 1 1 2 1 1 0 2 1 2 1 1 1 0 1 4 9 14 15 11 10 10 8 5 4 4 9 15 18 23 28 30 29
8 7 6 5 7 8 5 4 3 2 3 4 4 3 2 2 3 4 3 1 2 3 4 5 6 6 7 9 9 9 8 7 6 6 6 3 3 3 3 5 5 4 5 6 5 4 5 3 2 3 2 1 2 3 2 1 1 1 0 1 2 3 2 2 1 2 1 1 4 6 10 16 18 14 10 10 10 7 4 2 5 11 15 21 27 30 29
8 6 4 4 6 8 7 5 3 3 3 4 4 3 2 1 2 2 1 1 3 4 3 4 7 6 6 9 9 7 7 6 6 7 5 3 4 4 5 8 8 7 9 10 6 5 6 3 2 3 2 1 1 1 1 1 1 2 1 1 2 3 4 2 1 2 1 2 4 3 8 13 17 16 14 13 12 8 5 3 2 5 9 15 21 25 27
8 6 5 5 6 8 8 6 4 4 4 4 4 2 1 1 1 1 1 2 3 4 3 3 6 8 8 9 8 7 6 7 6 6 5 4 4 4 7 10 10 8 8 8 5 5 6 4 3 2 2 2 1 1 2 1 1 2 1 1 2 3 4 1 1 2 2 2 2 2 3 7 13 16 16 14 11 8 7 7 6 6 7 10 15 19 21
8 6 6 6 7 8 8 7 5 4 4 4 4 2 1 1 1 1 2 4 4 3 2 2 5 8 9 9 8 7 7 7 5 5 7 8 8 8 8 9 9 7 6 6 5 5 5 4 3 2 1 2 2 2 1 1 1 2 1 3 3 3 1 1 3 3 2 3 2 1 1 0 7 13 15 14 11 6 7 9 9 9 9 9 12 15 18
8 6 7 7 7 8 9 8 6 5 5 5 4 2 1 0 1 1 2 4 3 2 3 4 6 8 8 7 6 7 8 6 4 3 4 4 5 7 6 6 7 7 6 5 5 4 4 3 2 2 2 2 2 1 1 1 2 2 1 3 4 3 1 0 3 2 1 2 1 3 3 3 4 9 12 12 11 8 8 10 10 8 7 7 9 11 14
7 7 9 10 9 8 9 8 6 5 6 5 3 2 1 1 3 3 3 4 4 4 6 7 6 5 5 5 5 6 7 6 5 5 3 2 3 5 5 5 6 6 6 6 6 4 4 4 4 3 2 2 1 0 1 2 1 1 2 4 5 4 3 4 4 2 1 1 3 4 4 3 4 5 7 8 9 8 9 9 8 8 7 6 6 6 8
7 8 10 11 10 9 10 9 7 6 6 5 4 3 2 2 4 5 5 5 5 4 5 5 4 4 4 5 6 6 7 6 6 6 5 4 5 7 6 5 5 5 5 5 4 4 4 4 4 3 2 2 1 1 1 2 1 2 2 5 6 4 4 5 4 3 3 1 1 2 2 2 5 8 8 7 7 6 6 6 5 6 7 7 7 7 4
9 9 9 11 11 10 10 8 7 6 6 6 5 3 1 2 5 6 5 5 5 5 5 6 6 5 5 6 8 10 10 8 7 7 7 5 6 7 6 5 5 5 4 4 4 4 4 3 3 3 3 3 3 2 3 3 1 3 2 4 4 3 2 2 2 4 4 2 2 5 6 7 8 10 9 9 9 8 9 9 8 5 4 4 5 6 6
11 10 10 11 11 10 10 8 7 7 7 6 5 3 2 4 6 6 4 4 4 4 5 5 5 3 2 3 6 8 9 9 9 9 8 8 7 6 5 4 5 4 3 5 6 4 3 3 4 4 4 3 2 2 3 3 3 3 1 3 2 1 1 1 1 3 5 5 5 6 8 8 8 8 9 10 11 11 11 12 12 13 12 7 4 5 5
12 11 11 11 10 10 9 8 7 7 7 7 5 4 4 5 6 5 3 3 3 3 4 4 3 1 2 3 5 5 5 6 6 6 6 5 5 5 4 5 5 4 3 3 3 3 3 3 3 4 4 3 3 3 1 2 4 3 1 1 1 0 0 2 4 5 6 7 6 6 7 8 9 9 10 11 11 12 12 12 12 14 16 17 15 14 12
13 12 11 9 10 9 8 8 7 6 7 7 6 5 4 4 4 4 3 2 3 3 3 3 3 1 1 2 3 4 4 4 4 3 3 3 4 5 4 4 4 3 2 2 2 3 3 2 3 4 3 2 3 3 1 4 5 5 3 2 1 1 3 4 5 6 6 6 7 7 8 9 10 10 11 11 11 10 11 11 11 10 12 16 19 20 19
13 14 11 9 9 9 8 7 7 7 7 6 6 6 5 4 4 4 4 3 3 2 2 3 3 2 2 1 1 2 4 4 4 3 3 3 4 4 4 3 2 2 2 2 2 2 2 2 4 4 1 2 2 1 3 6 8 9 7 5 3 3 5 5 5 6 7 7 8 9 10 10 11 11 11 11 11 11 10 9 9 9 9 10 11 13 16
13 15 12 9 9 8 8 9 9 8 7 6 6 5 4 4 4 4 5 5 3 1 2 3 3 2 3 2 1 3 5 4 4 3 4 3 3 3 2 2 2 1 1 2 1 1 2 4 4 1 1 1 2 5 6 6 9 11 9 6 4 4 4 4 5 6 7 8 8 9 10 11 11 11 11 11 11 11 10 9 7 7 8 9 9 9 10
14 15 11 9 9 10 10 10 9 8 6 5 5 4 3 3 3 3 4 6 4 2 3 4 2 3 4 3 2 4 5 3 2 3 3 2 3 2 3 2 1 1 1 2 2 1 4 5 3 1 1 3 5 7 7 7 9 9 8 6 5 4 3 4 5 6 7 8 8 9 9 10 10 11 11 11 9 7 6 6 6 6 7 8 8 8 8
14 12 11 11 10 9 9 9 9 8 6 4 4 3 2 3 3 2 3 4 4 4 4 3 2 4 5 2 2 4 4 3 2 2 2 2 3 2 2 2 2 1 0 1 0 3 3 2 2 1 3 7 9 10 10 9 9 9 8 8 7 6 5 5 5 5 7 8 9 10 11 11 12 13 12 11 10 8 6 6 6 7 8 8 8 8 8
13 13 13 12 9 7 9 10 9 7 5 4 3 2 2 3 2 1 1 2 2 3 4 2 3 6 6 3 2 4 5 4 3 1 1 3 3 0 0 1 2 2 1 1 2 4 2 2 1 0 2 5 9 12 13 12 11 11 10 9 8 7 6 5 4 5 8 9 10 12 13 14 15 15 14 13 13 13 12 11 10 11 11 11 10 11 11
15 14 13 10 8 9 11 11 9 6 4 4 3 2 2 2 1 2 2 2 0 2 4 3 4 7 8 5 3 4 5 4 3 2 2 3 3 2 2 1 2 2 1 1 3 5 2 1 0 1 2 5 8 11 12 13 13 12 10 9 8 6 5 5 5 7 9 11 12 13 13 14 14 15 15 15 15 15 15 14 13 13 14 14 13 13 13
15 13 11 10 11 12 13 11 7 5 4 3 1 1 1 1 1 2 3 2 1 3 5 5 4 5 9 8 5 5 6 5 4 3 3 2 2 3 2 1 2 2 0 3 4 4 2 1 0 2 4 6 7 9 11 13 13 11 10 8 7 6 6 7 8 9 12 14 15 16 16 16 16 17 17 17 18 18 18 17 16 16 16 16 16 15 15
13 11 11 11 12 12 10 8 5 3 2 1 1 0 0 0 1 1 2 2 1 3 6 7 5 4 7 9 6 4 6 7 5 3 2 2 3 3 2 1 1 1 2 3 4 4 2 1 2 4 6 7 7 10 12 13 12 11 10 8 7 7 8 10 11 13 15 17 19 20 21 21 21 21 21 21 22 22 22 21 20 19 19 18 18 18 17
13 12 12 12 11 9 6 3 2 2 1 1 1 0 1 1 0 1 2 3 3 3 5 7 6 5 6 8 6 4 5 7 5 2 2 3 3 2 2 2 1 1 2 3 3 2 1 2 3 4 6 8 9 11 12 12 12 11 10 8 8 8 10 13 14 17 18 19 21 23 24 24 25 25 24 24 25 25 25 24 22 21 20 20 21 21 20
13 12 10 8 6 5 3 1 1 1 0 0 1 2 1 1 1 1 1 2 4 5 7 10 10 7 6 8 7 5 5 6 5 2 2 3 3 2 1 1 2 2 3 2 1 0 2 4 5 5 7 11 12 13 13 12 12 10 8 7 8 10 12 14 16 18 19 20 20 20 20 21 22 22 22 23 24 25 26 25 23 21 21 21 22 23 23
11 8 6 4 2 2 2 1 0 1 2 2 2 3 3 3 3 3 4 4 4 6 9 12 12 9 8 8 7 4 3 5 4 2 2 2 1 0 1 2 2 2 2 1 1 1 2 4 6 9 13 15 16 15 13 12 10 8 6 7 8 10 12 13 15 17 18 18 19 18 18 19 19 20 20 20 21 22 24 25 24 23 22 22 22 22 22
7 5 5 3 0 1 2 1 1 0 2 4 4 5 5 4 3 3 4 5 5 6 10 13 12 9 8 8 5 3 4 5 3 2 3 3 1 1 3 3 2 1 1 1 2 3 4 6 8 12 16 18 17 15 12 10 7 5 6 7 8 9 11 13 15 16 17 18 18 18 19 19 19 20 20 20 20 20 22 23 23 24 24 24 24 22 21
4 4 4 2 0 1 1 2 3 3 3 4 5 5 4 4 3 3 3 4 5 5 7 10 10 7 6 6 5 3 4 4 3 1 2 3 0 1 1 2 1 1 2 3 4 5 5 6 9 13 17 19 17 14 11 8 5 4 5 6 8 9 12 14 15 15 15 16 17 17 18 18 19 19 19 19 19 19 20 20 21 22 23 24 25 24 22
4 3 2 1 1 2 2 2 3 4 4 4 5 4 4 4 4 3 3 5 6 5 5 8 8 6 4 4 4 2 2 3 2 2 2 2 1 1 1 1 2 2 3 4 5 5 4 5 9 15 19 19 16 12 9 6 4 4 4 5 8 10 12 14 14 14 15 16 16 17 18 18 17 16 16 16 17 17 17 18 19 20 21 23 23 23 23
3 3 2 1 2 3 3 3 3 4 3 3 3 4 4 5 6 5 3 4 6 6 6 7 7 5 2 2 2 1 1 2 2 1 0 1 1 1 1 1 2 3 3 4 5 6 5 5 10 17 20 18 14 11 8 6 4 3 4 5 8 10 12 13 13 14 14 15 15 16 16 16 15 15 15 15 16 16 15 16 17 18 19 21 22 22 22
3 3 3 2 2 3 3 2 2 3 2 0 1 2 3 6 7 6 4 5 7 7 7 7 5 3 2 2 2 1 2 3 2 2 1 2 2 2 1 2 3 4 4 5 6 7 7 8 14 19 19 17 13 10 8 5 3 2 3 5 8 10 11 12 13 13 13 12 13 14 14 14 14 14 13 13 13 13 14 15 16 17 17 18 19 21 22
2 3 4 4 5 5 3 1 1 4 4 3 2 2 4 6 7 5 4 6 7 7 6 4 3 3 3 1 1 1 1 3 3 2 2 3 3 3 3 4 6 6 6 6 6 6 8 12 16 18 18 16 13 10 7 5 3 1 2 5 8 9 11 12 13 12 11 11 12 12 13 13 13 13 12 12 12 12 13 14 14 14 15 15 17 19 20
3 3 3 5 8 9 8 6 5 6 6 5 5 6 6 6 5 4 3 6 8 7 6 4 3 3 1 2 3 2 2 1 1 1 2 3 3 4 5 5 5 4 5 6 6 8 10 14 15 15 14 13 11 9 7 5 3 1 2 5 7 9 12 13 13 12 12 12 12 12 12 12 12 12 11 10 11 12 12 11 10 10 11 11 13 15 17
Wind_Direction
345 349 352 352 354 355 354 355 357 359 7 11 9 14 14 7 17 8 356 350 351 23 6 339 5 307 270 305 286 290 349 14 13 16 24 32 29 31 31 28 55 64 101 83 59 72 77 51 70 157 191 117 286 340 2 14 27 82 41 299 283 107 74 50 307 300 310 307 323 2 33 90 92 61 70 121 147 132 138 167 159 133 152 136 86 44 269
344 348 351 352 354 356 356 356 357 357 3 8 11 17 8 346 351 36 358 303 254 98 131 269 321 297 309 353 341 326 44 41 27 18 15 8 19 69 30 351 37 41 60 77 64 55 90 73 27 87 149 58 3 15 29 39 42 36 6 281 297 26 49 70 53 8 3 353 355 360 355 26 72 325 341 83 119 105 107 112 79 111 182 150 130 204 246
343 346 349 353 355 356 357 358 356 354 356 3 9 12 0 340 331 23 31 195 195 114 143 178 206 283 339 17 339 339 53 42 31 42 32 20 42 95 15 343 36 24 37 58 29 32 86 94 3 37 82 275 355 22 31 37 34 10 345 297 280 57 78 103 110 129 154 166 177 266 309 316 323 312 326 108 123 120 126 113 86 142 187 144 142 191 180
342 345 348 352 355 356 358 360 357 352 352 358 7 11 9 22 19 347 22 95 125 60 46 59 114 219 94 59 350 20 76 22 24 48 44 24 37 59 22 356 41 36 43 58 22 9 37 69 65 47 349 285 305 5 23 27 20 9 7 4 63 104 65 104 129 137 173 193 218 246 258 242 260 303 84 120 133 117 109 113 143 173 159 157 204 170 151
340 344 347 350 355 356 357 2 359 352 351 356 4 10 14 38 72 342 2 14 29 49 39 28 19 218 145 101 309 18 52 335 16 38 46 26 33 57 35 16 36 42 53 79 35 353 8 32 39 5 316 279 293 343 22 24 14 14 18 12 52 107 24 356 115 125 176 201 245 269 250 185 223 15 47 126 141 110 106 142 191 154 136 199 222 168 157
338 343 346 349 355 357 357 3 2 354 354 356 2 14 24 42 127 87 38 342 309 62 346 347 348 284 116 98 122 26 51 56 24 15 33 26 23 49 45 7 2 337 108 112 76 348 14 23 359 321 333 331 331 350 14 16 11 18 27 18 58 116 17 326 40 70 90 351 310 315 63 117 60 43 34 359 186 141 130 163 183 144 151 207 184 167 167
336 342 346 348 355 357 357 4 5 1 360 358 4 23 39 59 131 107 36 296 211 251 310 317 339 341 43 75 68 66 76 75 45 334 33 21 7 41 77 354 351 1 64 105 102 19 71 38 333 293 1 357 10 13 351 349 5 16 30 24 50 109 8 317 305 23 19 11 357 5 41 59 48 40 32 24 34 129 119 111 98 90 88 161 152 152 154
336 341 346 348 354 356 358 4 6 8 6 3 16 34 41 60 68 1 350 299 288 328 322 322 55 28 22 70 67 75 88 86 80 27 47 60 347 35 88 46 4 31 51 77 95 168 164 147 326 177 111 22 19 51 281 287 356 11 23 2 12 67 17 308 1 42 357 356 3 2 15 60 65 44 26 28 43 61 81 107 106 76 71 118 131 132 126
336 339 344 350 355 355 358 4 7 12 13 12 32 41 39 60 37 7 2 335 349 357 345 36 92 33 16 110 141 96 112 132 113 53 37 72 93 93 133 141 38 34 44 56 49 286 217 194 279 268 160 103 105 99 215 215 342 7 16 359 1 48 45 330 39 56 326 343 4 349 348 46 54 31 13 8 18 42 76 152 150 127 124 125 129 141 162
336 337 341 351 356 354 357 3 6 14 20 25 39 41 32 35 12 355 357 335 355 4 347 29 87 124 260 165 151 148 198 198 125 79 29 38 69 120 161 150 86 40 37 30 346 318 305 305 333 330 127 106 100 94 82 84 81 49 47 35 19 73 87 21 56 72 302 326 350 340 2 36 16 347 350 337 316 260 120 335 17 139 139 140 158 173 155
336 336 338 349 358 355 355 2 4 11 22 27 33 33 25 22 6 344 8 56 344 7 16 21 84 143 274 146 112 99 134 162 118 121 75 5 59 86 106 114 98 67 24 357 344 345 354 40 64 86 95 89 83 77 69 61 51 51 109 92 30 74 94 77 72 107 277 311 335 3 37 44 281 271 270 246 245 181 120 77 95 136 149 152 141 135 138
335 333 333 344 357 355 355 1 2 7 17 21 22 24 19 18 11 356 40 119 335 9 40 18 5 354 34 100 96 83 103 106 108 119 125 133 80 80 65 71 87 60 7 6 350 358 118 115 65 68 70 70 65 59 56 47 28 31 56 91 98 66 77 84 31 94 147 319 7 51 55 253 251 283 303 228 203 148 107 82 54 22 332 129 124 131 141
334 330 325 336 353 353 354 2 360 1 11 11 11 16 14 15 14 3 19 107 5 355 11 356 45 69 82 90 90 88 100 105 108 112 114 117 104 83 64 63 74 41 30 15 357 56 116 31 356 9 16 25 37 41 37 25 15 25 30 42 89 105 103 115 49 47 127 40 38 92 234 265 289 320 349 30 43 59 72 58 6 343 329 142 133 132 134
331 329 319 320 346 350 349 0 360 354 2 3 0 9 11 11 14 8 12 84 80 338 348 58 45 52 61 83 95 96 91 93 96 94 88 83 85 78 69 66 58 41 38 17 20 59 95 21 22 16 349 2 18 10 360 4 31 40 20 12 55 106 127 106 57 23 132 109 30 292 301 329 338 337 349 24 345 334 79 121 292 316 313 150 137 130 133
327 327 316 301 334 350 345 355 358 345 348 352 350 3 11 9 9 9 11 49 99 22 35 44 317 322 4 95 114 106 71 66 80 67 49 65 82 77 65 51 33 27 38 53 47 54 82 77 62 36 357 19 37 326 322 337 358 44 50 31 51 75 101 132 117 69 88 105 78 340 360 320 272 280 286 305 309 261 177 135 308 313 147 149 144 137 138
324 323 312 287 310 344 340 345 353 344 337 339 343 357 9 8 5 4 3 16 85 42 3 350 297 193 93 101 116 115 107 100 86 36 4 16 54 77 70 49 36 38 71 74 67 62 65 79 110 136 188 207 191 273 343 358 327 329 11 35 41 38 32 91 101 50 67 116 147 192 193 242 254 259 286 325 336 280 159 85 318 286 157 153 152 144 144
321 321 310 274 273 329 335 336 345 345 330 322 336 352 5 9 6 4 2 12 73 77 15 14 94 130 101 95 99 103 117 135 114 94 61 320 347 39 60 47 43 56 63 55 43 54 69 75 85 94 249 239 156 105 338 70 12 318 336 12 24 15 8 51 72 63 107 126 170 197 201 264 276 271 300 328 341 19 114 69 278 221 157 160 159 151 152
316 319 311 268 243 289 320 325 337 340 325 310 328 351 5 12 8 7 13 22 58 63 43 57 91 98 89 107 115 110 123 128 107 93 102 324 355 24 34 29 27 33 40 54 64 65 73 70 62 93 186 270 72 105 222 114 83 296 314 8 20 7 4 55 94 101 92 104 150 224 270 274 281 301 314 330 350 66 110 216 239 170 147 161 161 155 156
313 317 312 264 228 257 294 299 320 326 309 294 313 348 2 11 10 10 22 32 53 69 63 72 89 93 95 109 116 116 123 121 109 105 93 32 30 68 52 40 36 24 32 60 83 84 76 54 40 124 125 316 341 116 138 111 172 241 347 23 23 27 5 22 75 72 48 103 125 317 281 251 321 321 321 340 32 178 215 246 213 152 150 160 159 157 159
310 313 307 258 220 236 273 267 278 302 292 286 292 334 350 360 14 21 22 30 62 90 80 76 88 100 105 108 107 104 99 90 98 120 128 133 134 101 71 29 17 28 39 56 62 73 103 105 289 116 117 283 278 124 96 359 267 220 175 72 32 116 94 350 276 184 116 65 50 50 190 285 345 342 337 32 28 265 268 305 192 162 159 160 158 159 162
306 310 303 258 219 219 246 259 255 248 268 283 287 310 328 334 358 20 17 30 92 103 79 75 96 110 109 105 100 92 84 75 75 98 116 114 90 92 131 186 194 47 80 105 99 67 136 157 223 40 101 242 341 127 125 42 338 280 194 149 120 143 131 197 251 198 108 74 53 193 227 310 347 355 352 354 337 301 295 305 195 167 162 163 159 156 162
301 305 299 259 219 209 226 248 248 238 246 272 282 295 314 316 330 350 342 316 177 134 78 79 109 121 118 112 105 96 85 75 67 74 100 103 84 93 129 133 97 82 127 121 107 133 157 136 138 109 85 49 41 72 130 110 37 293 297 97 81 256 208 168 187 190 147 184 222 258 327 353 7 16 9 357 350 327 311 277 196 170 164 166 161 155 158
294 296 293 258 214 200 214 237 237 236 236 249 266 276 285 294 306 315 313 294 181 142 110 105 123 132 130 125 117 105 94 85 69 42 26 79 103 99 113 114 92 85 102 95 114 157 149 137 139 124 110 107 96 90 85 97 211 272 301 110 247 282 229 158 162 275 247 124 359 1 13 18 22 27 27 20 14 9 344 281 201 180 172 171 167 163 159
284 283 286 259 214 195 200 223 229 227 231 238 255 268 270 280 289 294 294 272 166 144 123 109 110 123 140 141 128 109 95 90 65 24 349 283 191 136 129 130 117 106 101 93 97 115 112 118 134 107 104 170 123 101 90 48 202 187 59 329 301 334 32 92 45 19 77 36 356 18 37 30 24 26 34 32 25 20 11 309 207 190 184 178 175 173 170
276 265 261 253 218 197 195 210 218 218 226 234 246 257 281 322 308 288 281 217 160 148 136 96 81 92 136 151 142 124 103 84 54 24 352 283 222 184 150 130 119 118 111 100 91 91 89 92 109 102 116 162 131 125 149 124 162 160 88 13 287 335 12 44 61 41 87 254 297 11 60 48 38 36 31 26 26 31 41 62 144 179 187 185 183 183 182
271 252 234 231 216 198 194 202 212 214 218 227 236 243 287 342 355 36 112 159 140 127 137 115 85 96 130 149 151 148 126 96 62 41 51 78 107 141 143 127 116 117 115 103 95 96 93 89 96 105 129 147 123 157 174 161 130 120 96 298 280 331 352 37 121 28 3 286 305 359 50 41 42 44 39 32 31 42 63 81 108 131 145 165 182 192 194
266 245 218 213 209 198 193 198 205 207 211 221 224 225 278 328 28 56 98 140 137 119 145 151 109 106 119 129 141 156 148 126 101 78 77 83 92 104 115 116 114 115 110 100 100 102 91 79 87 114 155 147 112 99 131 159 115 103 80 318 346 17 352 151 94 53 333 273 289 317 186 59 35 41 43 40 39 58 85 88 93 106 120 142 167 186 200
258 231 200 195 198 196 195 198 200 200 206 214 208 198 254 268 133 100 110 133 134 119 128 128 116 112 109 102 119 150 156 153 156 141 104 91 103 111 106 104 110 110 102 102 107 99 82 88 119 141 137 124 110 66 45 69 66 66 295 315 4 41 33 92 107 119 246 254 164 97 113 119 60 43 40 38 42 63 83 80 77 82 94 123 150 168 185
246 218 195 189 189 194 198 198 196 197 200 204 199 194 212 160 126 118 116 118 113 108 114 113 106 101 90 79 103 141 156 175 201 199 173 152 159 156 145 131 125 118 110 115 118 105 99 122 137 131 108 122 145 341 24 74 86 243 279 343 17 42 55 59 83 108 55 103 119 89 69 76 59 34 23 20 25 42 58 65 74 78 77 93 119 140 175
222 199 189 187 188 196 200 196 193 195 195 192 184 179 183 153 132 121 109 105 103 105 110 107 102 95 86 86 103 124 143 168 191 191 177 181 188 179 170 161 154 143 126 120 118 110 115 126 123 109 101 97 101 105 108 112 170 248 313 25 38 65 81 63 53 42 36 87 132 32 13 351 333 328 328 337 342 346 359 13 35 57 65 80 90 83 102
191 176 180 187 191 197 199 193 190 194 193 186 178 169 160 151 143 131 108 94 97 104 103 99 103 109 100 99 111 119 124 136 150 148 139 140 155 165 171 171 163 157 146 132 125 123 124 121 112 115 110 82 80 113 126 118 174 257 309 31 43 61 73 50 30 31 28 6 320 314 308 311 321 323 324 331 328 313 303 302 302 313 353 47 73 63 54
173 169 180 190 194 196 195 190 189 193 191 185 177 159 129 141 148 143 122 95 94 108 114 107 103 105 102 111 125 129 128 131 137 135 125 121 129 141 151 156 153 148 139 130 123 113 106 110 117 122 112 88 87 107 104 115 178 224 272 21 26 41 65 38 350 351 343 328 315 308 305 313 325 328 328 330 327 318 309 297 282 274 274 286 320 332 335
173 176 183 191 195 194 191 187 188 191 190 186 180 163 144 147 153 155 141 113 103 111 118 114 107 112 139 143 147 151 149 148 146 136 124 126 141 144 136 137 141 132 116 121 127 122 120 123 120 115 105 93 98 94 85 203 202 198 182 27 27 56 306 306 310 314 315 314 312 303 299 303 309 313 314 315 316 316 315 311 302 282 263 258 268 279 280
181 181 181 187 192 190 187 186 185 184 183 184 187 184 177 173 173 170 163 148 130 114 103 99 99 111 140 131 146 170 182 177 162 143 121 125 150 154 144 140 140 125 103 99 121 132 139 139 127 125 115 68 68 71 285 242 211 182 173 178 173 264 287 289 295 299 300 303 301 294 291 294 297 298 299 300 301 304 305 307 311 300 269 257 263 270 269
188 183 178 181 184 184 183 178 172 167 167 170 175 176 179 186 190 185 182 172 151 127 114 109 102 111 116 72 25 209 190 169 147 137 128 124 130 135 132 124 110 94 111 132 127 121 129 139 142 142 113 16 48 153 242 231 204 192 194 200 214 257 280 286 293 295 295 296 296 294 292 292 291 289 289 289 289 291 295 294 293 292 284 277 278 278 272
184 179 176 175 174 171 164 157 156 157 157 156 159 165 179 190 190 191 191 184 174 153 141 132 119 140 149 139 198 186 163 143 125 117 119 127 125 108 93 98 90 63 90 113 85 50 133 151 153 134 28 45 206 228 237 223 205 201 205 218 240 257 274 285 287 291 293 295 298 300 300 298 296 291 288 284 280 278 277 272 267 270 275 279 285 290 289
172 172 172 168 162 155 148 147 152 155 156 157 162 168 179 174 160 166 187 189 194 190 155 146 155 176 160 146 166 164 153 144 125 102 96 119 123 86 65 79 98 91 68 50 32 106 151 153 142 105 182 217 231 240 234 218 210 212 220 235 241 233 244 268 279 290 296 297 301 306 307 306 303 299 292 283 274 266 261 257 260 268 269 269 275 282 290
166 167 164 158 153 149 149 151 152 148 142 146 152 150 148 144 124 104 149 175 192 197 175 158 174 178 163 133 136 156 157 148 121 94 95 133 125 68 41 71 111 134 75 343 321 142 130 104 85 120 243 248 247 245 234 217 212 221 231 231 220 212 222 248 269 289 299 303 307 311 310 307 305 304 299 287 272 264 261 267 277 283 280 273 269 266 267
161 157 155 154 152 149 151 155 153 146 138 138 141 144 150 147 130 90 118 142 173 189 185 195 204 187 175 151 140 161 160 140 108 74 148 160 161 197 10 123 134 121 62 321 191 159 138 353 357 358 286 265 250 246 238 224 218 224 228 221 213 213 222 238 262 283 292 295 298 300 302 303 303 301 297 287 276 271 270 273 278 283 283 280 273 266 263
153 150 150 154 154 149 150 153 153 147 133 125 126 140 151 152 173 181 145 100 37 206 194 193 197 192 191 187 173 172 170 155 134 128 153 161 168 152 117 124 149 126 62 289 197 165 155 322 5 337 281 251 241 241 234 221 218 219 214 206 206 213 224 238 255 266 271 275 279 282 284 287 290 290 288 284 280 278 277 278 280 281 280 278 275 273 271
148 148 152 155 152 150 151 151 149 142 134 124 118 136 153 173 212 176 136 95 327 226 190 172 160 182 197 198 186 172 174 171 151 129 127 137 146 136 119 103 131 120 312 254 187 145 114 68 185 256 252 238 232 228 216 207 204 201 193 192 198 208 227 244 254 260 266 272 277 278 278 277 277 277 278 278 278 278 279 278 278 278 276 274 273 272 273
149 149 147 144 141 142 143 140 134 133 132 120 100 10 318 255 212 200 197 216 230 192 181 180 170 168 185 189 179 161 170 176 166 133 123 148 160 150 124 59 74 85 243 204 150 104 53 344 256 260 248 229 217 206 197 192 190 185 184 194 205 220 244 260 267 271 274 276 279 280 280 278 275 274 274 274 275 275 276 275 274 273 272 272 271 270 271
146 143 139 136 133 132 128 121 121 121 84 63 84 21 312 314 237 235 255 237 211 173 168 174 165 142 158 174 167 146 161 177 176 134 113 146 156 131 76 52 63 191 180 152 117 76 104 204 233 247 221 198 191 186 182 183 185 185 191 208 225 246 265 274 280 283 284 284 284 284 282 280 278 276 274 272 271 272 272 271 270 270 268 268 268 269 271
144 141 140 136 132 127 126 133 141 130 111 336 149 159 210 267 249 212 212 207 195 182 176 177 174 161 159 168 163 148 155 172 171 140 116 143 140 103 70 225 213 177 140 125 97 40 218 233 246 228 189 176 176 177 179 185 192 196 208 230 253 272 282 287 292 295 295 294 293 290 288 286 284 281 278 275 272 270 269 267 265 263 263 264 266 267 270
147 146 137 121 106 126 152 199 289 164 198 214 190 169 178 192 200 199 194 189 184 177 178 182 180 169 157 159 164 162 157 159 163 171 159 134 106 56 213 201 181 130 107 106 262 249 259 260 240 208 190 184 181 182 187 195 202 214 238 264 280 292 299 304 307 307 304 301 299 296 293 292 290 288 286 284 279 273 270 266 262 259 258 258 261 264 266
159 157 134 112 77 206 171 167 331 204 191 201 204 197 193 196 204 200 191 190 186 177 178 182 182 170 157 159 167 172 157 151 157 179 151 127 121 229 183 147 114 88 96 231 239 235 245 247 228 207 196 190 185 185 193 201 212 236 269 288 300 309 316 320 318 314 310 306 301 297 295 294 294 292 291 288 284 279 274 269 265 261 258 256 255 256 258
172 162 132 102 44 213 188 216 236 235 232 231 230 232 243 259 261 243 209 199 189 172 173 180 181 176 169 168 173 184 175 160 157 178 152 137 159 269 128 114 147 197 179 204 233 236 241 244 227 204 192 187 186 188 193 201 221 255 281 296 306 316 324 327 326 323 319 315 310 306 301 298 295 294 292 289 287 283 278 273 268 263 259 257 256 252 251
188 169 150 144 178 181 187 225 254 269 275 268 266 278 288 276 265 263 239 210 196 187 187 182 172 165 176 181 173 172 163 147 159 201 188 141 80 7 50 12 268 230 186 198 218 223 237 240 212 190 182 183 188 191 192 199 223 253 281 305 319 329 336 337 334 330 325 322 318 315 311 305 299 295 294 293 291 289 285 281 275 265 258 255 254 250 246
203 183 184 207 219 220 224 247 292 306 295 257 249 261 265 262 268 278 263 220 210 208 199 178 160 152 170 176 144 121 165 173 172 212 165 125 144 195 174 190 239 247 240 222 216 226 242 225 189 180 179 182 185 189 193 203 223 252 292 323 340 347 347 342 336 331 327 324 321 318 318 315 309 303 299 298 295 292 289 285 280 272 262 255 249 245 243
221 224 229 225 234 252 252 247 280 304 310 234 198 229 259 273 281 287 269 231 216 198 179 168 158 142 131 117 80 8 265 210 168 121 144 189 193 183 178 201 221 231 232 222 223 235 234 200 178 177 181 183 184 189 197 205 221 260 317 352 3 2 357 349 344 339 335 332 326 321 320 319 316 312 309 305 300 295 291 287 282 278 271 260 249 243 241
234 241 244 231 226 235 242 220 249 272 283 297 314 311 292 284 287 291 267 226 204 181 165 165 149 98 83 101 164 208 193 172 144 129 199 216 180 144 172 221 231 228 225 219 216 217 207 189 182 182 184 183 186 193 198 201 214 257 5 17 15 12 8 3 357 353 348 344 336 329 324 322 318 315 311 308 303 300 296 292 285 278 271 263 254 246 241
233 251 272 263 250 247 251 261 273 272 272 284 308 318 305 289 285 285 245 212 200 194 189 175 139 107 108 194 186 155 134 138 145 175 219 224 193 179 200 220 224 222 226 223 208 193 188 186 186 188 187 188 192 197 197 197 205 182 39 22 14 15 17 14 10 5 360 354 348 342 336 330 323 317 313 310 309 307 305 302 296 284 272 263 254 246 240
Height
1513 1511 1509 1507 1505 1503 1501 1498 1496 1493 1491 1490 1489 1489 1488 1488 1488 1488 1487 1488 1488 1488 1490 1491 1491 1491 1489 1489 1489 1488 1488 1488 1486 1485 1485 1485 1485 1485 1486 1487 1488 1489 1489 1490 1491 1493 1496 1498 1497 1497 1498 1497 1495 1494 1491 1490 1489 1489 1491 1491 1488 1490 1496 1497 1491 1487 1484 1480 1478 1478 1479 1479 1481 1482 1485 1488 1488 1489 1494 1500 1507 1518 1524 1525 1529 1533 1531
1513 1511 1509 1507 1505 1503 1501 1499 1497 1494 1493 1492 1490 1489 1489 1489 1488 1488 1488 1488 1488 1489 1492 1492 1492 1491 1490 1489 1489 1489 1489 1489 1488 1488 1488 1487 1487 1488 1489 1489 1488 1489 1489 1490 1492 1494 1496 1498 1498 1497 1498 1496 1494 1493 1491 1490 1490 1490 1491 1491 1488 1492 1501 1501 1497 1498 1496 1492 1490 1487 1482 1482 1486 1487 1487 1487 1488 1489 1493 1498 1502 1512 1521 1520 1521 1530 1532
1513 1511 1509 1507 1506 1504 1502 1500 1497 1495 1494 1493 1492 1490 1490 1489 1489 1488 1488 1488 1488 1489 1491 1492 1492 1493 1492 1492 1491 1490 1490 1490 1490 1490 1490 1489 1489 1489 1490 1490 1489 1490 1490 1491 1493 1494 1494 1497 1498 1497 1497 1495 1493 1493 1492 1491 1490 1490 1490 1489 1487 1493 1502 1501 1500 1506 1510 1509 1505 1498 1492 1490 1490 1490 1489 1489 1490 1488 1490 1500 1505 1510 1519 1519 1516 1525 1532
1513 1511 1509 1507 1506 1504 1502 1501 1498 1496 1495 1494 1493 1491 1491 1490 1490 1490 1489 1488 1489 1490 1491 1491 1491 1492 1493 1494 1494 1493 1492 1492 1491 1490 1491 1491 1490 1490 1491 1491 1490 1491 1492 1494 1496 1496 1495 1496 1497 1498 1498 1496 1494 1493 1492 1491 1490 1490 1489 1487 1488 1494 1500 1501 1500 1503 1507 1507 1503 1498 1496 1495 1491 1490 1490 1491 1492 1488 1488 1499 1504 1505 1515 1522 1520 1523 1528
1512 1511 1509 1507 1506 1504 1503 1501 1499 1497 1495 1494 1493 1492 1491 1491 1493 1493 1492 1490 1490 1490 1491 1491 1492 1491 1492 1494 1495 1495 1494 1493 1492 1491 1491 1492 1492 1492 1494 1494 1493 1494 1495 1497 1500 1500 1498 1498 1499 1501 1500 1497 1495 1494 1492 1492 1491 1490 1489 1487 1489 1494 1500 1501 1500 1500 1502 1503 1500 1497 1496 1495 1492 1491 1491 1491 1491 1489 1489 1494 1498 1501 1510 1518 1520 1521 1523
1512 1511 1509 1507 1506 1504 1503 1501 1500 1497 1496 1495 1494 1493 1492 1493 1494 1495 1494 1494 1494 1493 1492 1492 1492 1491 1491 1493 1495 1496 1496 1496 1496 1494 1493 1493 1493 1493 1496 1498 1498 1497 1496 1498 1502 1503 1502 1502 1503 1503 1501 1499 1497 1494 1493 1493 1491 1490 1491 1489 1490 1497 1503 1503 1499 1497 1498 1500 1500 1498 1494 1494 1495 1495 1493 1493 1492 1489 1489 1494 1498 1498 1498 1503 1512 1518 1519
1512 1511 1509 1507 1506 1504 1503 1502 1500 1498 1497 1495 1494 1493 1493 1494 1495 1495 1494 1494 1495 1495 1493 1492 1493 1492 1491 1493 1496 1497 1497 1498 1498 1497 1495 1496 1496 1496 1500 1503 1501 1499 1497 1498 1503 1506 1505 1505 1505 1503 1502 1501 1500 1499 1498 1495 1493 1492 1492 1492 1494 1498 1502 1504 1501 1495 1494 1498 1500 1498 1494 1493 1496 1498 1497 1496 1496 1493 1492 1498 1503 1501 1499 1501 1509 1516 1518
1512 1510 1509 1507 1506 1505 1503 1502 1501 1499 1497 1496 1495 1495 1495 1495 1496 1495 1494 1494 1494 1494 1494 1492 1492 1492 1491 1494 1496 1498 1498 1498 1498 1498 1499 1500 1500 1499 1502 1504 1502 1501 1499 1499 1503 1505 1504 1505 1504 1502 1502 1502 1501 1503 1503 1500 1496 1494 1494 1496 1495 1495 1501 1505 1501 1496 1496 1499 1498 1497 1497 1496 1495 1497 1498 1498 1500 1499 1498 1500 1502 1504 1509 1510 1511 1517 1521
1511 1510 1509 1508 1506 1505 1504 1503 1502 1500 1498 1497 1496 1496 1496 1496 1496 1496 1495 1494 1494 1494 1494 1494 1494 1493 1493 1495 1496 1498 1499 1499 1498 1500 1501 1501 1501 1501 1502 1504 1503 1502 1502 1502 1504 1504 1502 1502 1502 1501 1501 1501 1501 1501 1502 1501 1500 1498 1499 1500 1498 1498 1503 1504 1500 1500 1502 1501 1500 1499 1497 1494 1493 1496 1500 1501 1502 1503 1502 1501 1500 1503 1510 1515 1516 1518 1518
1511 1510 1509 1508 1506 1505 1504 1503 1502 1501 1500 1498 1497 1497 1497 1497 1496 1496 1496 1495 1495 1495 1495 1495 1495 1494 1494 1495 1495 1497 1499 1498 1498 1501 1503 1502 1501 1501 1502 1502 1503 1504 1504 1504 1504 1503 1502 1502 1502 1501 1501 1501 1500 1501 1501 1500 1500 1501 1502 1503 1504 1506 1506 1504 1504 1507 1506 1504 1504 1501 1496 1499 1503 1504 1505 1504 1503 1503 1502 1501 1500 1500 1504 1511 1514 1510 1507
1511 1509 1509 1508 1507 1505 1504 1503 1502 1502 1501 1499 1498 1498 1498 1497 1497 1497 1496 1496 1496 1496 1495 1495 1494 1494 1494 1494 1495 1496 1498 1498 1498 1501 1504 1504 1502 1502 1502 1502 1503 1505 1505 1504 1503 1502 1502 1502 1502 1502 1501 1501 1501 1501 1501 1500 1501 1502 1502 1503 1506 1508 1508 1509 1510 1509 1510 1509 1504 1501 1508 1515 1514 1508 1505 1504 1502 1501 1502 1502 1503 1502 1502 1504 1504 1502 1504
1510 1509 1508 1508 1507 1506 1505 1504 1503 1502 1501 1500 1500 1499 1498 1498 1497 1497 1496 1496 1496 1496 1495 1496 1495 1495 1495 1494 1495 1497 1498 1498 1498 1499 1502 1504 1503 1503 1503 1502 1504 1505 1504 1503 1503 1502 1503 1503 1503 1503 1502 1502 1502 1501 1502 1503 1503 1503 1502 1502 1506 1507 1508 1513 1513 1510 1512 1512 1507 1514 1524 1520 1509 1504 1504 1502 1501 1501 1502 1503 1504 1504 1503 1502 1502 1504 1506
1510 1509 1508 1507 1507 1506 1505 1504 1503 1503 1502 1502 1501 1500 1499 1499 1498 1497 1496 1496 1497 1498 1497 1497 1496 1496 1495 1495 1496 1498 1498 1498 1499 1500 1501 1503 1503 1503 1503 1503 1504 1504 1504 1504 1503 1502 1504 1506 1506 1505 1505 1504 1503 1503 1504 1506 1506 1505 1504 1503 1504 1506 1508 1513 1516 1515 1514 1515 1518 1523 1523 1512 1503 1504 1503 1502 1503 1503 1503 1505 1505 1504 1503 1502 1503 1507 1509
1509 1508 1507 1507 1506 1506 1505 1505 1504 1503 1503 1502 1502 1501 1500 1499 1498 1498 1497 1497 1498 1499 1498 1497 1497 1497 1497 1497 1497 1499 1500 1500 1500 1501 1502 1503 1504 1504 1504 1504 1504 1504 1504 1503 1503 1503 1506 1508 1509 1510 1510 1509 1510 1510 1508 1509 1508 1507 1507 1506 1505 1507 1508 1509 1515 1518 1517 1519 1522 1519 1514 1510 1508 1507 1506 1507 1508 1507 1507 1509 1508 1505 1504 1503 1504 1507 1510
1509 1507 1506 1506 1506 1506 1505 1505 1504 1503 1503 1503 1502 1501 1501 1500 1499 1498 1498 1497 1498 1499 1499 1498 1498 1498 1498 1498 1498 1500 1501 1501 1502 1502 1503 1503 1504 1504 1505 1505 1504 1504 1504 1503 1504 1506 1508 1510 1514 1517 1517 1517 1519 1518 1513 1511 1510 1508 1509 1510 1507 1508 1508 1507 1512 1519 1520 1520 1522 1523 1522 1520 1516 1511 1509 1508 1509 1508 1508 1510 1509 1505 1504 1503 1504 1506 1509
1508 1507 1506 1506 1505 1505 1505 1504 1504 1503 1503 1503 1502 1502 1501 1501 1500 1499 1498 1498 1498 1499 1499 1498 1498 1498 1498 1499 1499 1500 1501 1503 1504 1504 1505 1505 1504 1505 1505 1505 1504 1504 1504 1503 1506 1508 1510 1514 1519 1521 1521 1521 1522 1521 1517 1516 1514 1510 1509 1509 1508 1509 1511 1510 1512 1520 1522 1520 1523 1528 1528 1521 1515 1512 1508 1506 1508 1506 1506 1512 1512 1505 1504 1505 1505 1506 1508
1507 1506 1505 1505 1505 1505 1505 1504 1504 1503 1503 1503 1503 1502 1502 1501 1500 1499 1499 1498 1498 1500 1500 1498 1498 1498 1498 1499 1500 1501 1502 1503 1504 1505 1506 1506 1505 1505 1505 1505 1505 1504 1504 1505 1508 1510 1513 1518 1521 1521 1522 1523 1521 1520 1520 1520 1518 1515 1512 1511 1511 1511 1513 1513 1515 1522 1524 1522 1524 1526 1523 1516 1513 1510 1507 1506 1505 1503 1510 1521 1516 1504 1503 1507 1506 1507 1509
1506 1505 1504 1504 1504 1504 1504 1504 1504 1503 1503 1503 1503 1502 1502 1501 1501 1500 1499 1499 1499 1499 1500 1499 1498 1498 1499 1500 1501 1501 1502 1503 1503 1504 1506 1506 1506 1506 1505 1506 1506 1505 1505 1507 1510 1512 1516 1520 1522 1521 1521 1522 1520 1520 1522 1522 1521 1521 1520 1519 1519 1518 1518 1520 1521 1523 1524 1524 1524 1524 1521 1515 1512 1509 1507 1505 1504 1507 1518 1522 1511 1502 1505 1507 1507 1509 1511
1505 1504 1504 1504 1504 1504 1504 1504 1504 1503 1503 1503 1503 1503 1502 1502 1501 1501 1500 1499 1499 1500 1500 1500 1499 1499 1500 1500 1501 1501 1502 1502 1502 1504 1506 1507 1506 1506 1506 1506 1506 1506 1506 1508 1512 1516 1518 1520 1524 1524 1521 1520 1520 1521 1523 1523 1523 1524 1523 1522 1523 1523 1523 1525 1525 1526 1527 1526 1524 1525 1523 1517 1513 1510 1507 1505 1508 1514 1516 1511 1505 1505 1507 1506 1508 1511 1511
1504 1503 1503 1503 1503 1503 1503 1503 1503 1503 1503 1503 1503 1503 1502 1502 1501 1501 1501 1500 1500 1500 1501 1501 1500 1500 1501 1501 1501 1502 1502 1502 1503 1504 1506 1507 1506 1506 1509 1510 1508 1507 1508 1510 1514 1519 1519 1519 1523 1524 1521 1520 1521 1522 1522 1523 1524 1523 1522 1523 1523 1522 1523 1526 1527 1528 1530 1528 1526 1528 1526 1519 1514 1511 1508 1507 1511 1512 1509 1506 1506 1507 1506 1506 1509 1510 1511
1502 1502 1502 1502 1502 1503 1503 1503 1503 1503 1503 1503 1503 1503 1502 1502 1501 1501 1501 1501 1501 1501 1501 1502 1501 1501 1502 1502 1502 1503 1503 1504 1504 1504 1505 1506 1506 1507 1510 1511 1509 1508 1510 1511 1515 1518 1518 1519 1522 1521 1520 1521 1522 1522 1523 1523 1523 1522 1521 1522 1523 1522 1523 1526 1527 1526 1526 1526 1526 1527 1524 1520 1517 1514 1512 1512 1513 1511 1508 1508 1508 1507 1507 1508 1509 1510 1513
1501 1501 1501 1501 1501 1502 1502 1503 1503 1503 1503 1503 1503 1503 1502 1502 1501 1501 1501 1501 1501 1501 1502 1502 1502 1502 1502 1503 1503 1503 1504 1504 1505 1505 1506 1506 1507 1507 1508 1508 1508 1509 1510 1511 1513 1515 1516 1517 1519 1520 1521 1522 1522 1525 1528 1526 1523 1523 1522 1521 1522 1522 1522 1523 1523 1523 1524 1525 1524 1523 1521 1520 1518 1516 1515 1514 1513 1511 1510 1509 1508 1508 1509 1510 1510 1512 1514
1500 1500 1499 1500 1500 1501 1502 1502 1502 1502 1502 1502 1502 1502 1502 1502 1501 1501 1501 1501 1501 1501 1502 1502 1503 1503 1503 1504 1504 1504 1505 1505 1506 1506 1506 1507 1507 1508 1508 1508 1508 1509 1510 1510 1511 1512 1514 1516 1517 1518 1521 1523 1522 1525 1528 1526 1524 1524 1523 1521 1522 1522 1521 1521 1521 1521 1522 1522 1522 1521 1520 1519 1517 1516 1515 1514 1512 1511 1510 1510 1509 1509 1510 1511 1512 1513 1515
1498 1498 1498 1498 1499 1500 1501 1502 1502 1502 1502 1502 1502 1502 1502 1502 1501 1501 1500 1500 1501 1501 1502 1503 1503 1503 1503 1504 1504 1505 1506 1506 1506 1507 1506 1506 1507 1508 1508 1508 1508 1510 1510 1510 1511 1511 1512 1515 1517 1518 1520 1523 1522 1523 1525 1525 1525 1525 1524 1522 1522 1521 1520 1521 1521 1521 1522 1523 1522 1521 1521 1519 1518 1516 1515 1514 1513 1512 1511 1511 1511 1512 1512 1513 1514 1514 1516
1497 1497 1497 1498 1498 1499 1500 1501 1501 1501 1502 1502 1502 1502 1502 1501 1501 1501 1500 1500 1500 1501 1502 1503 1504 1504 1503 1504 1505 1505 1506 1506 1507 1507 1506 1506 1506 1507 1507 1508 1509 1510 1510 1511 1511 1512 1512 1514 1516 1517 1519 1521 1522 1523 1525 1525 1524 1524 1524 1523 1523 1521 1520 1522 1523 1523 1523 1524 1523 1522 1522 1521 1520 1518 1517 1516 1515 1514 1514 1513 1513 1514 1515 1515 1516 1517 1517
1496 1496 1496 1497 1497 1498 1499 1500 1501 1501 1501 1501 1501 1501 1501 1501 1501 1501 1500 1500 1501 1501 1502 1503 1504 1504 1504 1504 1505 1506 1506 1507 1507 1507 1507 1506 1506 1506 1507 1508 1509 1510 1511 1511 1512 1512 1513 1515 1517 1518 1520 1520 1520 1522 1524 1523 1523 1524 1523 1523 1522 1521 1521 1523 1525 1524 1524 1524 1523 1523 1522 1522 1521 1521 1520 1519 1518 1517 1517 1516 1516 1517 1518 1518 1519 1519 1519
1494 1494 1495 1495 1496 1497 1498 1499 1500 1500 1501 1501 1501 1501 1501 1501 1501 1501 1500 1500 1501 1501 1502 1503 1504 1504 1504 1504 1505 1506 1507 1507 1508 1508 1508 1507 1508 1508 1508 1509 1510 1510 1511 1512 1512 1513 1514 1516 1517 1519 1520 1520 1520 1521 1522 1522 1523 1524 1523 1522 1522 1522 1522 1524 1525 1525 1525 1525 1524 1523 1523 1523 1523 1523 1522 1522 1521 1521 1520 1519 1519 1519 1520 1521 1521 1521 1521
1493 1493 1494 1495 1496 1496 1497 1498 1499 1500 1500 1500 1501 1501 1501 1501 1501 1501 1501 1501 1501 1501 1501 1502 1503 1504 1504 1505 1505 1506 1507 1507 1508 1508 1509 1509 1509 1509 1509 1510 1510 1511 1512 1512 1513 1514 1515 1516 1518 1519 1519 1519 1520 1521 1522 1523 1523 1524 1524 1524 1523 1523 1524 1524 1525 1526 1526 1525 1524 1524 1524 1525 1525 1525 1524 1524 1524 1523 1522 1522 1522 1522 1522 1523 1523 1524 1524
1491 1492 1492 1494 1495 1496 1497 1498 1499 1499 1500 1500 1500 1501 1501 1501 1501 1501 1501 1501 1501 1501 1501 1502 1504 1505 1505 1506 1506 1506 1507 1508 1508 1509 1509 1509 1510 1510 1510 1511 1511 1511 1512 1513 1513 1514 1516 1517 1518 1519 1519 1520 1520 1522 1523 1525 1525 1525 1525 1525 1524 1524 1524 1524 1524 1525 1525 1524 1525 1525 1525 1525 1525 1525 1525 1526 1526 1525 1525 1524 1524 1524 1524 1524 1525 1525 1526
1490 1491 1492 1493 1494 1495 1496 1497 1498 1499 1499 1500 1500 1501 1501 1501 1501 1501 1501 1501 1501 1502 1502 1503 1504 1506 1506 1507 1507 1507 1507 1508 1508 1509 1509 1509 1510 1510 1511 1511 1512 1512 1513 1513 1514 1515 1516 1517 1518 1519 1520 1520 1521 1522 1526 1528 1528 1526 1525 1525 1524 1524 1524 1525 1525 1525 1525 1525 1525 1525 1525 1526 1526 1525 1526 1526 1526 1526 1527 1526 1526 1526 1526 1526 1526 1526 1527
1489 1490 1491 1492 1493 1494 1496 1497 1498 1498 1499 1500 1500 1501 1501 1501 1501 1501 1502 1502 1502 1502 1502 1503 1505 1506 1507 1508 1508 1508 1508 1508 1509 1509 1510 1510 1510 1511 1512 1512 1512 1513 1513 1514 1514 1515 1516 1517 1518 1519 1520 1520 1521 1523 1526 1528 1527 1526 1525 1524 1524 1524 1524 1525 1525 1525 1525 1525 1526 1525 1526 1526 1525 1525 1525 1526 1526 1526 1526 1527 1527 1527 1527 1527 1527 1528 1528
1488 1490 1491 1492 1493 1494 1495 1497 1497 1498 1499 1499 1500 1501 1501 1501 1501 1502 1502 1502 1502 1502 1502 1503 1505 1507 1508 1508 1509 1509 1509 1509 1509 1510 1510 1511 1511 1512 1512 1512 1513 1513 1514 1514 1515 1516 1517 1518 1518 1519 1520 1520 1521 1524 1526 1526 1525 1524 1523 1523 1523 1524 1524 1524 1525 1525 1525 1525 1525 1525 1525 1525 1525 1525 1525 1525 1525 1525 1525 1525 1526 1527 1527 1527 1527 1528 1529
1488 1489 1490 1492 1493 1494 1495 1496 1497 1498 1499 1499 1500 1501 1501 1501 1502 1502 1502 1502 1502 1502 1503 1503 1506 1508 1508 1508 1509 1509 1509 1510 1510 1510 1511 1511 1512 1512 1512 1513 1513 1514 1514 1515 1516 1517 1518 1518 1519 1519 1520 1520 1521 1524 1525 1524 1522 1522 1522 1522 1523 1523 1524 1524 1524 1524 1524 1524 1524 1524 1524 1524 1525 1525 1525 1525 1525 1524 1524 1524 1524 1524 1525 1526 1526 1527 1528
1487 1489 1490 1492 1493 1494 1495 1496 1497 1498 1498 1499 1500 1500 1501 1501 1502 1502 1502 1502 1502 1503 1503 1504 1506 1508 1509 1509 1509 1509 1509 1510 1510 1511 1511 1512 1512 1512 1513 1513 1514 1514 1515 1516 1517 1517 1518 1519 1519 1520 1521 1522 1523 1524 1524 1522 1521 1521 1522 1522 1522 1523 1523 1523 1524 1524 1524 1524 1524 1524 1524 1524 1524 1524 1524 1524 1524 1523 1523 1523 1523 1523 1523 1524 1524 1525 1526
1487 1488 1490 1491 1493 1494 1495 1496 1497 1498 1498 1499 1500 1500 1501 1501 1501 1502 1502 1502 1502 1503 1503 1504 1505 1507 1510 1511 1511 1509 1509 1510 1510 1511 1511 1512 1512 1513 1513 1514 1514 1515 1516 1517 1517 1518 1518 1519 1519 1521 1523 1524 1524 1524 1522 1520 1519 1520 1521 1521 1522 1522 1522 1523 1523 1523 1523 1523 1523 1523 1523 1523 1523 1523 1523 1523 1523 1522 1522 1522 1522 1522 1522 1522 1523 1523 1524
1486 1488 1490 1491 1493 1494 1495 1495 1497 1498 1499 1499 1500 1500 1501 1501 1501 1502 1502 1502 1503 1503 1503 1504 1505 1506 1508 1510 1510 1509 1509 1510 1511 1511 1512 1512 1513 1514 1514 1514 1515 1517 1517 1517 1518 1519 1519 1520 1520 1523 1525 1525 1522 1520 1518 1518 1518 1519 1520 1521 1521 1522 1522 1522 1522 1522 1522 1523 1523 1523 1523 1523 1523 1523 1523 1522 1522 1521 1521 1521 1521 1521 1521 1521 1522 1522 1522
1486 1488 1490 1491 1493 1494 1495 1496 1497 1498 1499 1500 1500 1500 1501 1501 1501 1501 1502 1502 1502 1503 1503 1504 1505 1505 1506 1507 1508 1508 1509 1510 1511 1512 1512 1513 1513 1514 1514 1515 1517 1518 1518 1518 1519 1519 1519 1520 1521 1524 1524 1522 1518 1516 1516 1517 1517 1518 1519 1520 1520 1520 1521 1521 1521 1521 1521 1521 1521 1522 1522 1522 1522 1522 1522 1522 1522 1521 1521 1520 1520 1520 1520 1520 1520 1520 1520
1487 1489 1490 1492 1493 1494 1495 1496 1497 1498 1499 1500 1500 1500 1501 1501 1501 1501 1502 1502 1502 1503 1503 1503 1504 1505 1506 1506 1507 1508 1508 1509 1511 1512 1512 1513 1514 1515 1515 1516 1517 1518 1520 1520 1519 1519 1520 1522 1524 1524 1521 1517 1514 1515 1515 1516 1516 1517 1518 1518 1518 1519 1519 1520 1520 1521 1521 1521 1521 1521 1521 1520 1521 1521 1521 1521 1521 1521 1520 1520 1520 1520 1520 1520 1520 1520 1520
1487 1489 1490 1492 1493 1493 1494 1496 1497 1498 1499 1499 1500 1500 1501 1501 1502 1502 1502 1502 1502 1503 1503 1504 1503 1504 1505 1506 1507 1508 1508 1509 1511 1512 1512 1513 1514 1515 1516 1517 1518 1519 1521 1521 1519 1519 1521 1523 1525 1524 1519 1514 1512 1512 1513 1514 1515 1516 1516 1517 1517 1518 1519 1519 1519 1520 1520 1520 1520 1520 1520 1519 1519 1519 1519 1520 1520 1520 1519 1519 1519 1519 1519 1519 1519 1518 1518
1488 1489 1490 1491 1492 1493 1494 1496 1497 1498 1499 1499 1500 1500 1501 1501 1501 1502 1502 1503 1503 1503 1502 1503 1503 1503 1504 1505 1506 1507 1507 1508 1510 1510 1511 1513 1514 1514 1516 1517 1517 1519 1522 1521 1519 1519 1521 1522 1525 1524 1517 1511 1510 1510 1510 1512 1513 1514 1515 1516 1516 1517 1517 1518 1518 1519 1519 1519 1519 1519 1518 1518 1518 1517 1517 1517 1517 1517 1517 1517 1518 1518 1518 1518 1518 1517 1517
1488 1489 1491 1491 1492 1493 1495 1496 1497 1498 1499 1499 1500 1500 1501 1501 1501 1501 1502 1503 1503 1502 1501 1501 1502 1503 1503 1504 1505 1506 1507 1508 1509 1509 1510 1512 1513 1514 1516 1517 1518 1520 1522 1520 1518 1518 1520 1521 1524 1521 1513 1507 1507 1509 1509 1510 1512 1513 1514 1515 1515 1516 1516 1517 1517 1517 1517 1516 1516 1516 1516 1516 1515 1515 1515 1515 1514 1514 1515 1515 1515 1515 1516 1516 1516 1516 1516
1488 1490 1491 1492 1493 1494 1495 1497 1497 1498 1498 1499 1500 1501 1502 1501 1500 1500 1500 1500 1500 1499 1499 1500 1501 1501 1502 1503 1505 1505 1506 1508 1508 1509 1510 1512 1513 1514 1516 1518 1519 1520 1519 1517 1517 1519 1521 1522 1521 1515 1508 1505 1507 1508 1508 1509 1511 1512 1512 1513 1514 1514 1515 1515 1515 1515 1515 1514 1514 1513 1513 1512 1512 1512 1512 1512 1511 1511 1511 1511 1512 1512 1513 1513 1513 1513 1513
1489 1490 1491 1492 1493 1494 1496 1497 1497 1498 1500 1500 1501 1502 1502 1501 1500 1499 1499 1497 1496 1497 1498 1499 1499 1500 1501 1503 1504 1505 1506 1507 1508 1508 1509 1511 1512 1513 1516 1518 1519 1518 1516 1516 1517 1519 1520 1519 1514 1508 1504 1504 1506 1507 1508 1509 1510 1511 1511 1512 1513 1513 1514 1513 1513 1513 1512 1511 1510 1510 1509 1509 1508 1508 1508 1508 1507 1507 1507 1508 1508 1509 1509 1509 1510 1510 1510
1490 1491 1491 1492 1493 1494 1496 1497 1497 1498 1500 1501 1501 1500 1501 1500 1499 1498 1497 1495 1494 1495 1496 1497 1498 1499 1501 1502 1503 1504 1505 1506 1507 1508 1509 1510 1512 1513 1516 1516 1515 1514 1515 1515 1517 1519 1518 1513 1507 1503 1503 1504 1505 1506 1507 1508 1509 1510 1511 1512 1512 1512 1512 1511 1510 1510 1509 1508 1507 1506 1505 1505 1504 1504 1504 1504 1503 1503 1503 1503 1504 1505 1505 1505 1506 1506 1507
1490 1491 1491 1492 1494 1495 1495 1497 1498 1497 1497 1498 1498 1497 1496 1496 1495 1495 1494 1493 1492 1493 1494 1495 1497 1498 1499 1501 1502 1503 1504 1505 1506 1507 1508 1509 1512 1513 1513 1512 1511 1513 1515 1515 1516 1517 1515 1508 1501 1500 1502 1503 1504 1505 1507 1507 1508 1510 1510 1510 1511 1510 1510 1509 1508 1507 1506 1505 1504 1503 1502 1501 1501 1500 1500 1500 1499 1499 1499 1499 1500 1500 1501 1501 1501 1502 1503
1490 1491 1491 1492 1494 1495 1495 1497 1498 1496 1494 1493 1493 1492 1491 1491 1492 1492 1492 1492 1492 1492 1493 1494 1496 1497 1499 1500 1501 1502 1502 1504 1505 1506 1507 1509 1511 1511 1509 1509 1510 1513 1515 1516 1514 1511 1506 1499 1497 1498 1500 1501 1502 1504 1505 1506 1507 1509 1509 1509 1509 1508 1507 1507 1506 1504 1503 1502 1501 1500 1499 1498 1497 1497 1496 1496 1496 1495 1495 1495 1496 1496 1496 1497 1497 1498 1499
1490 1491 1491 1492 1493 1494 1495 1495 1494 1492 1490 1490 1489 1489 1490 1490 1490 1491 1491 1491 1492 1492 1493 1494 1496 1497 1498 1499 1500 1501 1501 1502 1504 1505 1506 1507 1508 1508 1508 1508 1510 1511 1512 1511 1509 1503 1498 1494 1494 1496 1498 1499 1501 1503 1504 1505 1506 1507 1507 1507 1507 1506 1505 1505 1503 1502 1500 1499 1498 1497 1496 1495 1494 1493 1493 1492 1492 1492 1492 1492 1492 1492 1492 1492 1493 1494 1495
1490 1490 1491 1491 1492 1493 1492 1491 1489 1489 1488 1488 1488 1489 1489 1489 1489 1490 1490 1491 1491 1492 1493 1494 1495 1496 1498 1499 1499 1500 1501 1501 1503 1504 1504 1505 1506 1508 1508 1509 1508 1507 1505 1503 1499 1496 1493 1492 1492 1493 1496 1498 1500 1502 1503 1504 1505 1505 1505 1506 1505 1504 1504 1502 1501 1499 1498 1496 1495 1494 1493 1492 1491 1490 1490 1489 1489 1489 1488 1488 1488 1488 1488 1488 1489 1490 1491
1490 1490 1490 1490 1490 1490 1490 1489 1489 1488 1487 1487 1487 1488 1488 1489 1489 1489 1490 1490 1491 1491 1492 1493 1494 1495 1497 1498 1499 1500 1501 1501 1502 1503 1503 1504 1505 1506 1507 1507 1506 1503 1499 1496 1493 1491 1490 1490 1491 1493 1495 1497 1499 1501 1502 1503 1503 1504 1504 1504 1504 1503 1502 1501 1499 1497 1496 1494 1493 1492 1491 1490 1489 1488 1487 1487 1486 1486 1486 1486 1485 1485 1485 1485 1485 1486 1487
1490 1490 1489 1489 1489 1489 1488 1488 1488 1488 1487 1486 1487 1488 1488 1488 1489 1489 1489 1490 1490 1491 1491 1492 1493 1494 1496 1498 1500 1501 1500 1498 1499 1501 1502 1502 1502 1502 1503 1503 1500 1495 1492 1490 1489 1489 1488 1489 1491 1493 1495 1496 1498 1500 1501 1501 1502 1503 1503 1502 1502 1501 1500 1499 1497 1496 1494 1493 1492 1491 1490 1489 1487 1486 1486 1485 1484 1484 1483 1483 1482 1482 1482 1482 1482 1483 1484
1490 1489 1488 1488 1488 1488 1488 1488 1488 1487 1487 1487 1487 1487 1488 1488 1488 1488 1489 1489 1489 1490 1491 1491 1492 1494 1497 1498 1499 1498 1496 1495 1496 1498 1498 1497 1497 1498 1498 1495 1491 1488 1487 1486 1487 1487 1488 1489 1490 1492 1494 1496 1497 1498 1499 1500 1501 1501 1501 1501 1501 1500 1499 1498 1496 1494 1493 1492 1491 1490 1488 1487 1486 1485 1484 1484 1483 1482 1481 1481 1480 1479 1479 1479 1480 1480 1481
1489 1488 1487 1487 1487 1487 1487 1487 1487 1486 1486 1486 1487 1487 1487 1487 1487 1488 1488 1488 1489 1489 1490 1490 1492 1494 1495 1495 1494 1494 1494 1494 1495 1496 1494 1492 1491 1491 1489 1487 1485 1485 1485 1485 1486 1487 1488 1489 1490 1492 1493 1495 1497 1498 1498 1499 1499 1499 1500 1500 1499 1499 1498 1496 1495 1494 1493 1491 1490 1489 1487 1486 1485 1484 1483 1482 1481 1481 1480 1479 1478 1478 1477 1477 1477 1478 1479